#timestamp,LO_Frequency,Hit,StdDev 
1620586815.6,286047002.6,P
1620586835.4,286047002.6,N
1620586855.2,286047002.9,P
1620586875.1,286047003.4,Y
1620586876.0,286047003.4,P
1620586895.8,286046998.5,N
1620586915.7,286046999.6,N
1620586935.5,286046999.6,N
1620586955.3,286046999.1,N
1620586975.2,286046996.7,N
1620586995.0,286046993.6,Y
1620586995.9,286046993.6,P
1620587015.8,286046995.9,N
1620587035.6,286046995.2,N
1620587055.4,286046998.2,N
1620587075.3,286047000.1,N
1620587095.1,286046998.2,N
1620587115.9,286047001.2,N
1620587135.7,286046999.7,N
1620587155.5,286047000.5,N
1620587175.4,286047000.0,N
1620587195.2,286047001.0,N
1620587215.0,286046998.7,N
1620587215.9,286046998.7,N
1620587235.8,286046998.6,N
1620587255.6,286047000.8,N
1620587275.4,286047001.2,N
1620587295.3,286046995.8,N
1620587315.1,286046996.5,N
1620587335.9,286046998.7,N
1620587355.7,286046998.6,N
1620587375.5,286046996.9,N
1620587395.4,286046996.1,N
1620587415.2,286046995.8,N
1620587435.0,286046997.3,N
1620587436.0,286046997.3,N
1620587455.8,286046995.3,N
1620587475.6,286046996.2,N
1620587495.5,286046997.1,N
1620587515.3,286046999.1,N
1620587535.1,286046998.3,N
1620587555.9,286047000.1,N
1620587575.7,286047001.3,N
1620587595.5,286047001.9,N
1620587615.4,286046999.7,N
1620587635.2,286047001.0,N
1620587655.1,286046999.8,N
1620587656.0,286046999.8,N
1620587675.8,286047001.6,N
1620587695.6,286047004.3,N
1620587715.5,286047004.3,N
1620587735.3,286047002.6,N
1620587755.1,286047000.0,N
1620587775.9,286046998.3,N
1620587795.7,286047000.3,N
1620587815.6,286047000.0,N
1620587835.4,286047000.3,N
1620587855.2,286047000.8,N
1620587875.1,286046997.8,N
1620587876.0,286046997.8,N
1620587895.8,286046997.2,N
1620587915.7,286046999.5,N
1620587935.5,286046999.4,N
1620587955.3,286046999.0,N
1620587975.2,286046996.8,N
1620587995.9,286046998.8,N
1620588015.7,286046998.2,N
1620588035.6,286046999.4,N
1620588055.4,286047001.2,N
1620588075.3,286047002.3,N
1620588095.1,286047000.8,N
1620588096.0,286047000.8,N
1620588115.8,286047000.1,N
1620588135.7,286047002.2,N
1620588155.5,286047000.2,N
1620588175.3,286046998.9,N
1620588195.2,286046997.4,N
1620588215.0,286046997.2,N
1620588215.9,286046997.2,N
1620588235.8,286046993.8,Y
1620588255.6,286046993.0,P
1620588275.4,286046991.7,N
1620588295.3,286046998.0,N
1620588315.1,286047000.6,N
1620588335.8,286047001.0,N
1620588355.7,286047000.4,N
1620588375.5,286046998.4,N
1620588395.4,286047000.8,N
1620588445.2,286047001.0,E
1620588455.1,286046998.3,N
1620588475.9,286047000.0,P
1620588495.7,286047000.8,N
1620588515.6,286047000.2,N
1620588535.4,286047002.3,N
1620588555.2,286047001.0,N
1620588575.1,286046995.2,Y
1620588576.0,286046995.2,P
1620588595.8,286046995.4,N
1620588615.6,286046997.8,N
1620588635.5,286046997.7,N
1620588655.3,286046997.2,N
1620588675.2,286046999.6,N
1620588695.9,286046997.3,N
1620588715.7,286046995.4,N
1620588735.6,286046997.6,N
1620588755.4,286046998.5,N
1620588775.2,286047000.1,N
1620588795.1,286047002.8,N
1620588796.0,286047002.8,N
1620588815.8,286047000.4,N
1620588835.7,286046999.8,N
1620588855.5,286047002.5,N
1620588875.3,286047004.3,N
1620588895.2,286047002.5,N
1620588915.0,286047001.9,N
1620588915.9,286047001.9,N
1620588935.8,286047000.2,N
1620588955.6,286047000.1,N
1620588975.4,286047000.9,N
1620588995.3,286046999.7,N
1620589015.1,286047003.2,N
1620589035.9,286047002.9,N
1620589055.7,286047004.1,N
1620589075.5,286047002.2,N
1620589095.4,286047003.4,N
1620589115.2,286047001.6,N
1620589135.0,286046998.6,N
1620589135.9,286046998.6,N
1620589155.8,286046999.0,N
1620589175.6,286047000.6,N
1620589195.5,286047000.3,N
1620589215.3,286047001.3,N
1620589235.1,286047001.5,N
1620589255.9,286047000.1,N
1620589275.7,286047000.2,N
1620589295.6,286047000.5,N
1620589315.4,286046999.0,N
1620589335.2,286046999.4,N
1620589355.1,286046997.5,N
1620589356.0,286046997.5,N
1620589375.8,286046995.0,N
1620589395.7,286046993.6,Y
1620589415.5,286046994.7,P
1620589435.3,286046994.2,N
1620589455.2,286046996.0,N
1620589475.0,286046993.8,N
1620589475.9,286046993.8,N
1620589495.7,286046993.5,N
1620589515.6,286046993.8,N
1620589535.4,286046994.2,N
1620589555.3,286046992.1,Y
1620589575.1,286046996.5,P
1620589595.8,286046998.9,N
1620589615.7,286047001.0,N
1620589635.5,286047000.2,N
1620589655.4,286047002.7,N
1620589675.2,286047000.0,N
1620589695.0,286047000.1,N
1620589695.9,286047000.1,N
1620589715.8,286047000.9,N
1620589735.6,286046998.5,N
1620589755.5,286046999.6,N
1620589775.3,286046998.5,N
1620589795.1,286047000.8,N
1620589815.9,286047000.6,N
1620589835.7,286047000.5,N
1620589855.5,286047000.0,N
1620589875.4,286046998.7,N
1620589895.2,286046996.6,N
1620589915.1,286046999.1,N
1620589916.0,286046999.1,N
1620589935.8,286046998.4,N
1620589955.6,286046996.9,N
1620589975.5,286046996.8,N
1620589995.3,286046995.3,N
1620590015.2,286046995.0,N
1620590035.9,286046993.9,Y
1620590055.7,286046993.9,P
1620590075.6,286046996.0,N
1620590095.4,286046996.4,N
1620590115.2,286046996.0,N
1620590135.1,286046995.8,N
1620590136.0,286046995.8,N
1620590155.8,286046993.4,Y
1620590175.7,286046998.7,P
1620590195.5,286046999.0,N
1620590215.4,286046998.8,N
1620590235.2,286047000.9,N
1620590255.1,286047000.4,N
1620590256.0,286047000.4,N
1620590275.8,286047002.4,N
1620590295.7,286047002.1,N
1620590315.5,286047000.3,N
1620590335.3,286047000.3,N
1620590355.2,286046998.1,N
1620590375.0,286047002.5,N
1620590375.9,286047002.5,N
1620590395.8,286047001.8,N
